Weather History for Salt Lake City, UT

Change the Weather History Date:

Tuesday, November 15, 2011

  Actual Average Record
Temperature  
Mean Temperature 44 °F 40 °F  
Max Temperature 48 °F 50 °F 70 °F (1999)
Min Temperature 39 °F 31 °F -10 °F (1955)
Degree Days  
Heating Degree Days 21 25  
Month to date heating degree days 376 323  
Since 1 July heating degree days 717 791  
Cooling Degree Days 0 0  
Month to date cooling degree days 0 0  
Year to date cooling degree days 1162 1160  
Moisture  
Dew Point 23 °F    
Average Humidity 48    
Maximum Humidity 59    
Minimum Humidity 36    
Precipitation  
Precipitation 0.00 in 0.05 in 0.93 in (1952)
Month to date precipitation 1.11 0.75  
Year to date precipitation 18.60 13.99  
Snow  
Snow 0.00 in 0.30 in 9.50 in (1958)
Month to date snowfall 3.8 2.6  
Since 1 July snowfall 3.8 4.0  
Snow Depth 0.00 in    
Sea Level Pressure  
Sea Level Pressure 30.03 in    
Wind  
Wind Speed 4 mph (WNW)    
Max Wind Speed 13 mph    
Max Gust Speed 15 mph    
Visibility 10 miles    
Events      
T = Trace of Precipitation, MM = Missing Value Source: NWS Daily Summary

Daily Weather History Graph

Daily Weather History Graph

Search for Another Location

Airport:

Trip Planner

Search our weather history database for the weather conditions in past years. The results will help you decide how hot, cold, wet, or windy it might be!

Date:

Astronomy

Nov. 15, 2011 Rise Set
Actual Time 7:14 AM MST 5:09 PM MST
Civil Twilight 6:45 AM MST 5:39 PM MST
Nautical Twilight 6:12 AM MST 6:12 PM MST
Astronomical Twilight 5:39 AM MST 6:44 PM MST
Moon 9:22 PM MST (11/15) 11:16 AM MST (11/15)
Length of Visible Light 10h 54m
Length of Day
9h 55m
Waning Gibbous, 78% of the Moon is Illuminated
Nov 15
Waning Gibbous
Nov 18
Last Quarter
Nov 24
New
Dec 2
First Quarter
Dec 10
Full

Hourly Weather History & Observations

Time (MST) Temp. Windchill Dew Point Humidity Pressure Visibility Wind Dir Wind Speed Gust Speed Precip Events Conditions
12:53 AM 41.0 °F 38.0 °F 26.1 °F 55% 29.86 in 10.0 mi North 4.6 mph - N/A   Mostly Cloudy
1:53 AM 41.0 °F 37.1 °F 25.0 °F 53% 29.86 in 10.0 mi NNW 5.8 mph - N/A   Mostly Cloudy
2:53 AM 39.9 °F 34.5 °F 26.1 °F 58% 29.88 in 10.0 mi WSW 8.1 mph - N/A   Mostly Cloudy
3:53 AM 39.0 °F 34.0 °F 25.0 °F 57% 29.89 in 10.0 mi West 6.9 mph - N/A   Overcast
4:53 AM 41.0 °F 37.1 °F 23.0 °F 49% 29.94 in 10.0 mi West 5.8 mph - N/A   Overcast
5:53 AM 41.0 °F - 24.8 °F 53% 29.98 in 10.0 mi Calm Calm - N/A   Overcast
6:53 AM 41.0 °F 36.4 °F 24.1 °F 51% 29.99 in 10.0 mi NW 6.9 mph - N/A   Mostly Cloudy
7:53 AM 39.9 °F 37.8 °F 25.0 °F 55% 30.02 in 10.0 mi NNW 3.5 mph - N/A   Mostly Cloudy
8:53 AM 42.1 °F 36.1 °F 25.0 °F 51% 30.04 in 10.0 mi NNE 10.4 mph - N/A   Mostly Cloudy
9:53 AM 44.1 °F 39.5 °F 24.1 °F 45% 30.06 in 10.0 mi NE 8.1 mph - N/A   Mostly Cloudy
10:53 AM 45.0 °F 43.5 °F 24.1 °F 44% 30.05 in 10.0 mi SSW 3.5 mph - N/A   Mostly Cloudy
11:53 AM 45.0 °F 43.5 °F 23.0 °F 42% 30.05 in 10.0 mi West 3.5 mph - N/A   Mostly Cloudy
12:53 PM 46.0 °F 43.9 °F 23.0 °F 40% 30.04 in 10.0 mi West 4.6 mph - N/A   Mostly Cloudy
1:53 PM 45.0 °F 42.6 °F 21.0 °F 39% 30.04 in 10.0 mi WNW 4.6 mph - N/A   Scattered Clouds
2:53 PM 46.9 °F - 23.0 °F 39% 30.04 in 10.0 mi West 8.1 mph - N/A   Scattered Clouds
3:53 PM 46.0 °F 42.5 °F 21.0 °F 37% 30.05 in 10.0 mi NW 6.9 mph - N/A   Scattered Clouds
4:53 PM 44.1 °F - 21.9 °F 42% 30.06 in 10.0 mi Calm Calm - N/A   Mostly Cloudy
5:53 PM 41.0 °F 39.0 °F 21.9 °F 47% 30.06 in 10.0 mi East 3.5 mph - N/A   Scattered Clouds
6:53 PM 41.0 °F 39.0 °F 21.2 °F 45% 30.10 in 10.0 mi ESE 3.5 mph - N/A   Scattered Clouds
7:53 PM 36.0 °F 32.1 °F 23.0 °F 59% 30.12 in 10.0 mi SW 4.6 mph - N/A   Scattered Clouds
8:53 PM 35.1 °F - 23.0 °F 61% 30.13 in 10.0 mi Calm Calm - N/A   Scattered Clouds
9:53 PM 35.1 °F - 23.0 °F 61% 30.15 in 10.0 mi Calm Calm - N/A   Mostly Cloudy
10:53 PM 35.1 °F 32.2 °F 23.0 °F 61% 30.16 in 10.0 mi SE 3.5 mph - N/A   Scattered Clouds
11:53 PM 32.0 °F 28.7 °F 23.0 °F 69% 30.17 in 10.0 mi South 3.5 mph - N/A   Scattered Clouds